Skip Page Navigation
NASA JPL Caltech
NASA Logo - Jet Propulsion Laboratory + View the NASA Portal
+ Center for Near-Earth Object Studies
JPL Home Earth Solar System Stars & Galaxies Technology
JPL Solar System Dynamics
BODIES ORBITS EPHEMERIDES TOOLS PHYSICAL DATA DISCOVERY FAQ SITE MAP
JPL Small-Body Database Browser
Search: [ help ]  
65197 (2002 CY282)
Classification: Main-belt Asteroid          SPK-ID: 2065197
Ephemeris | Orbit Diagram | Orbital Elements | Mission Design | Physical Parameters | Discovery Circumstances ]

[ show orbit diagram ]
Orbital Elements at Epoch 2459000.5 (2020-May-31.0) TDB
Reference: JPL 18 (heliocentric ecliptic J2000)
 Element Value Uncertainty (1-sigma)   Units 
e .04928991810434309 5.4626e-08  
a 2.178334680928625 1.0529e-08 au
q 2.070964742901802 1.1525e-07 au
i 5.52050241749454 4.5083e-06 deg
node 69.22322981269703 5.9516e-05 deg
peri 65.49027379714252 8.1183e-05 deg
M 266.7151312213321 5.5578e-05 deg
tp 2459304.794455949453
(2021-Mar-31.29445595)
0.00018203 TDB
period 1174.316966685316
3.22
8.5138e-06
2.331e-08
d
yr
n .3065611842568821 2.2226e-09 deg/d
Q 2.285704618955447 1.1048e-08 au
  Orbit Determination Parameters
   # obs. used (total)      594  
   data-arc span      14878 days (40.73 yr)  
   first obs. used      1978-11-29  
   last obs. used      2019-08-24  
   planetary ephem.      DE431  
   SB-pert. ephem.      SB431-N16  
   condition code      0  
   norm. resid. RMS      .60028  
   source      ORB  
   producer      Otto Matic  
   solution date      2020-Feb-23 14:35:46  

Additional Information
 Earth MOID = 1.09236 au 
 Jupiter MOID = 2.71749 au 
 T_jup = 3.675 
[ show covariance matrix ]

Ephemeris | Orbit Diagram | Orbital Elements | Mission Design | Physical Parameters | Discovery Circumstances ]

Physical Parameter Table
Parameter Symbol Value Units Sigma Reference Notes
absolute magnitude H 16.4   n/a MPO337760  

65197 (2002 CY282)          Discovered 2002-Feb-08 by LINEAR at Socorro
Reference: 20030614/Numbers.arcLast Updated: 2004-04-19

Alternate Designations
 2002 CY282 = 1978 WA13 = 1999 GP63 = 2000 SG368 
Ephemeris | Orbit Diagram | Orbital Elements | Mission Design | Physical Parameters | Discovery Circumstances ]
ABOUT SSD CREDITS/AWARDS PRIVACY/COPYRIGHT GLOSSARY LINKS
FirstGov 2020-Aug-12 13:16 UT
(server date/time)  
NASA Home Page
Site Manager:   Ryan S. Park
Webmaster  Alan B. Chamberlin